Theta_e
294 297 294 292 290 289 287 286 286 285 287 287 289 290 289 289 292 288 287 287 287 287 290 291 291 290 291 293 295 297 294 292 292 292 293 294 294 295 295 294 295 296 297 301 299 298 298 298 297 297 297 297 297 296 296 296 297 297 298 299 299 300 300 299 300 300 300 301 301 301 301 301 303 302 302 301 301 301 301 301 300 300 299 299 298 298
296 296 289 288 287 286 286 285 284 287 286 289 291 292 291 290 291 290 289 288 289 288 291 287 289 291 293 296 297 298 295 294 294 294 295 295 296 296 296 297 297 297 298 298 297 297 297 297 297 297 297 297 296 298 297 296 297 298 298 297 299 300 299 299 299 301 301 302 302 302 303 302 302 302 301 301 301 301 301 300 300 299 299 299 299 298
295 291 288 286 285 285 285 284 285 287 290 289 292 292 291 291 290 289 286 288 288 288 291 290 289 292 295 297 298 297 296 296 296 296 297 296 297 297 296 296 297 297 298 298 298 298 297 298 298 297 298 299 298 300 300 299 299 298 298 298 298 299 299 300 300 301 301 302 303 301 302 301 302 302 302 302 302 301 300 300 300 299 299 299 298 298
294 289 286 285 285 285 286 285 286 288 291 292 293 292 290 289 289 290 289 286 288 288 289 289 288 292 295 297 296 294 293 294 294 293 294 294 295 297 297 297 297 297 298 299 299 299 298 298 298 299 300 301 300 300 300 299 298 298 298 298 299 299 299 300 300 300 302 302 302 302 301 301 301 301 300 300 299 299 299 299 299 299 299 299 298 298
288 286 284 285 285 285 288 288 289 291 291 290 291 291 290 289 289 287 290 289 288 287 286 288 291 294 296 296 298 295 290 290 293 292 292 293 293 295 295 294 295 295 297 299 299 299 298 297 298 300 302 302 301 302 303 303 301 299 299 300 299 299 299 299 300 300 301 300 299 300 299 299 299 299 299 299 299 299 299 299 299 299 299 298 298 298
286 285 285 286 285 285 286 290 289 291 291 290 287 288 288 287 287 288 288 288 291 290 287 287 289 292 295 296 295 297 295 297 295 294 297 297 296 294 293 295 296 296 296 297 298 301 301 299 300 300 301 301 302 302 303 302 302 301 302 301 300 300 299 299 300 301 300 300 299 299 299 298 298 299 299 299 300 300 299 299 300 298 298 298 298 298
288 284 285 287 288 288 288 289 288 287 290 289 288 286 286 286 286 287 287 290 288 286 289 287 287 287 296 295 297 295 293 296 299 297 298 298 297 296 296 297 297 297 297 297 296 297 297 298 298 299 301 302 302 303 302 301 300 300 301 302 301 301 301 300 300 301 300 300 300 300 300 301 301 300 302 302 301 301 300 300 298 298 298 298 297 297
288 286 286 286 288 290 290 290 287 286 288 289 285 286 286 286 287 287 287 289 288 289 289 289 290 287 288 296 295 292 292 297 299 300 300 299 299 297 297 297 298 298 297 299 299 298 298 299 299 299 300 302 302 303 301 301 300 301 301 301 301 301 301 300 300 300 301 300 300 300 300 301 301 301 301 299 299 299 299 298 298 298 298 297 297 297
285 286 287 288 288 289 289 286 285 286 288 288 285 286 287 286 287 286 288 288 287 286 287 288 290 286 287 295 295 293 296 298 299 300 301 301 301 299 300 298 298 299 298 298 299 300 299 299 299 299 301 303 302 301 301 301 301 300 300 300 300 300 300 300 299 299 300 301 301 301 301 300 301 301 301 299 299 298 298 298 297 297 297 296 296 296
287 287 286 286 288 288 286 286 286 285 289 286 286 285 286 286 286 287 288 289 287 286 286 287 287 286 289 296 297 294 294 297 298 300 300 301 300 301 300 300 299 298 298 297 296 298 299 299 299 299 301 301 302 301 301 300 299 299 300 299 300 300 300 300 299 299 300 300 300 300 300 300 301 300 299 299 298 298 298 298 297 297 297 296 295 295
287 289 288 288 287 286 286 286 284 286 286 286 287 287 288 288 287 287 287 287 287 285 286 285 285 285 284 294 295 296 296 297 298 299 300 301 300 299 299 300 301 299 298 298 297 296 297 297 297 298 299 301 301 300 299 300 299 300 299 300 300 300 299 299 299 299 299 300 300 300 300 300 301 300 299 298 297 297 297 297 297 297 296 296 295 295
286 287 287 286 288 287 287 288 285 285 287 288 290 289 289 287 286 288 287 287 285 285 285 284 284 285 284 290 298 298 296 294 296 296 298 300 301 301 301 299 298 296 297 297 297 297 297 296 297 298 299 300 300 299 299 300 300 299 300 299 300 299 298 299 299 299 300 299 300 300 300 300 301 300 299 299 298 298 297 298 297 296 295 294 294 294
288 286 284 285 286 286 288 287 288 287 287 289 288 289 286 285 286 284 286 283 285 284 285 284 284 283 284 291 295 297 298 299 298 297 298 299 299 300 300 299 297 297 296 296 297 298 298 298 300 299 300 300 300 299 299 299 299 299 299 299 299 299 299 298 298 299 300 299 299 299 299 300 300 299 299 300 300 299 298 298 297 295 295 294 293 293
287 283 285 287 286 286 285 287 288 288 289 289 289 288 286 282 279 277 282 279 282 286 283 285 284 283 290 293 297 296 299 299 298 298 299 298 297 298 298 298 295 297 297 297 297 298 299 300 301 301 301 300 300 300 300 300 299 299 299 299 299 300 299 298 297 298 298 299 300 299 299 299 299 298 299 299 299 299 299 298 297 296 295 294 294 293
285 286 285 286 286 285 286 286 286 286 288 288 287 288 287 285 282 277 281 281 282 284 284 283 282 285 285 292 295 296 297 297 296 295 295 295 294 294 294 294 294 295 296 298 297 298 299 299 300 301 301 301 301 300 300 300 299 299 299 299 298 299 297 297 297 298 298 298 298 298 299 299 299 299 298 299 299 298 297 297 296 296 295 295 294 293
283 284 283 283 285 284 285 285 285 286 286 287 288 288 287 285 288 284 283 283 281 282 283 282 285 291 292 297 297 297 295 295 294 294 293 294 295 294 294 296 298 298 298 298 298 299 298 299 300 300 300 300 300 300 300 300 300 299 299 299 299 299 298 297 297 297 298 298 297 297 297 298 298 298 298 298 297 297 297 296 295 294 294 294 293 292
280 285 283 285 283 285 285 284 285 284 285 286 287 288 287 286 287 281 277 274 275 280 282 287 286 291 294 295 295 296 295 298 295 296 296 297 296 295 296 299 299 298 299 299 299 299 299 299 299 299 300 300 299 299 300 300 300 299 299 299 298 298 298 297 297 297 297 297 296 296 297 297 297 297 297 297 296 295 295 295 294 293 292 292 292 291
286 285 282 284 284 284 284 284 284 285 285 286 286 287 286 285 285 286 283 281 282 279 283 283 284 286 286 288 297 296 295 298 298 298 296 299 298 298 301 301 300 300 299 299 298 298 298 299 300 299 299 300 300 300 300 300 300 300 300 299 298 297 296 296 296 296 295 295 296 296 296 296 297 297 297 296 294 294 293 293 292 292 291 291 291 290
289 285 284 282 283 284 283 285 286 286 286 287 285 288 286 285 285 285 282 277 277 277 280 283 283 283 286 290 294 295 295 296 297 298 298 299 299 299 300 300 301 300 300 299 299 299 299 298 299 299 299 299 299 299 300 301 300 299 298 299 299 298 297 297 296 296 295 295 296 295 295 295 295 295 295 294 294 293 292 291 291 290 290 290 289 289
287 286 285 280 283 284 284 285 286 285 287 285 285 287 285 285 286 284 285 284 282 279 277 281 281 285 291 292 293 294 296 296 296 297 299 299 298 298 299 300 301 303 303 302 301 300 300 300 300 299 299 299 299 298 299 299 299 297 297 296 297 297 297 296 295 295 294 294 294 294 294 294 294 293 293 293 292 291 291 291 290 290 289 289 289 289
287 283 283 284 282 282 285 285 287 288 285 284 285 285 285 286 286 286 283 283 284 281 280 279 280 287 295 293 293 295 296 297 296 296 298 299 300 299 299 299 300 300 301 302 302 301 301 300 300 299 299 299 299 299 298 298 297 297 297 296 296 295 294 294 295 294 294 293 293 293 292 292 292 292 292 291 291 291 290 290 290 289 289 289 288 288
286 283 285 284 284 284 286 281 281 281 283 286 288 287 288 285 284 281 282 282 280 282 279 277 280 287 294 291 295 296 296 295 295 294 296 298 298 299 300 300 299 299 300 300 300 300 300 299 299 299 299 299 298 298 297 297 296 296 296 296 296 295 295 294 294 293 294 293 292 292 292 291 291 291 291 290 290 290 290 289 289 289 288 288 288 288
287 286 286 282 286 286 282 282 281 280 278 281 283 286 287 287 288 285 279 282 281 282 280 282 279 285 296 294 294 294 294 293 292 291 294 296 297 298 298 300 300 300 299 299 299 299 298 298 298 298 298 298 297 297 297 297 296 296 296 295 295 295 295 295 294 293 293 292 291 291 292 291 290 290 290 290 289 289 289 289 288 288 287 287 286 287
288 288 284 285 282 280 282 282 280 279 280 280 279 278 284 286 286 287 286 285 285 281 281 281 278 286 297 293 291 290 291 290 290 290 293 295 296 298 299 300 299 299 300 300 300 299 299 298 297 297 297 297 297 297 297 297 296 295 295 295 295 294 295 294 293 292 292 291 291 291 290 290 290 289 289 289 289 289 288 288 287 287 287 286 286 285
286 286 287 284 284 285 283 282 283 279 280 283 286 284 283 283 282 281 281 282 283 284 285 283 279 287 297 291 293 291 291 293 294 294 293 295 298 298 297 298 298 299 299 299 299 299 299 298 297 297 297 298 298 298 297 296 296 295 295 294 294 294 294 293 293 292 291 291 290 290 289 289 289 289 289 289 289 288 288 287 286 286 286 285 284 284
287 287 285 282 278 276 277 280 285 285 284 286 283 281 282 284 281 284 283 284 281 283 284 283 284 291 296 296 297 296 296 296 297 298 297 297 296 295 297 298 298 298 298 298 298 298 298 298 298 297 297 297 297 297 297 297 296 295 294 294 294 293 293 293 292 291 290 290 290 289 289 289 289 288 288 288 288 288 287 286 286 285 285 284 284 283
285 283 285 286 286 285 287 287 283 284 284 284 283 281 282 283 285 286 286 284 283 283 281 286 288 290 292 294 295 296 297 296 296 297 296 297 297 298 299 298 298 297 297 297 297 298 298 298 298 298 298 297 297 297 297 296 296 295 294 294 293 293 293 292 291 290 290 290 289 289 288 288 288 288 288 288 287 287 286 285 285 284 284 284 283 283
283 285 285 282 282 285 284 282 282 285 285 286 285 284 283 283 284 285 284 284 288 284 282 289 290 286 289 293 294 295 296 296 296 296 296 296 297 297 296 296 295 297 298 298 298 298 298 298 298 298 298 298 297 297 296 296 296 295 294 293 293 292 292 291 290 289 289 289 289 289 288 288 288 288 288 287 287 286 285 285 284 284 284 283 283 282
287 285 282 282 283 283 280 281 280 283 285 286 285 285 282 283 283 283 284 289 287 285 285 290 290 287 291 293 295 295 296 296 296 296 296 296 295 296 296 296 296 297 298 298 298 298 298 298 298 298 298 298 297 296 296 295 295 294 294 294 293 292 291 291 290 289 289 288 288 288 289 288 288 287 287 286 286 285 284 284 284 283 283 283 283 283
286 286 282 281 283 284 282 279 280 281 283 283 284 285 285 283 284 285 287 288 287 287 290 290 291 290 292 293 294 296 297 296 296 296 296 295 295 296 295 295 296 297 297 298 298 298 298 298 298 297 298 297 297 296 296 295 295 294 293 293 293 292 291 290 289 289 288 288 288 288 288 288 287 286 286 285 284 284 284 283 283 283 282 282 282 282
285 285 282 281 282 284 279 278 278 280 280 281 285 285 285 284 285 286 286 287 286 286 287 288 287 287 292 295 295 296 296 296 295 294 295 296 296 295 295 295 297 298 298 298 299 299 298 298 298 298 297 297 297 297 296 296 295 294 293 293 292 291 291 290 289 288 288 288 288 288 288 287 286 285 284 284 284 284 283 283 282 282 282 282 282 281
284 284 281 282 284 285 278 277 279 275 276 276 279 282 284 282 279 283 282 286 285 285 287 285 284 286 292 296 294 295 294 293 294 295 295 296 296 295 295 296 297 298 298 298 298 298 298 298 298 298 297 297 296 296 296 296 295 294 293 293 292 291 290 289 289 288 288 288 288 287 287 286 285 284 284 284 283 283 283 282 282 281 281 281 281 281
285 286 284 285 283 283 281 275 276 276 281 285 287 289 287 284 286 285 286 286 288 289 285 284 286 293 297 295 293 295 296 296 296 296 296 296 297 297 296 296 297 297 298 298 298 297 298 298 298 297 297 297 296 296 296 296 295 294 294 293 292 291 289 288 288 288 288 288 287 287 286 286 285 284 284 283 283 283 282 282 281 281 281 281 281 281
281 286 285 282 283 284 279 273 274 282 282 285 292 290 289 285 285 284 286 287 287 289 289 292 293 296 295 295 294 295 295 296 296 296 296 295 295 295 297 297 297 297 297 298 298 298 298 299 299 298 297 296 296 295 295 295 295 295 295 294 292 290 289 288 288 288 288 287 287 287 286 285 285 284 284 283 283 282 282 281 281 281 281 281 281 281
282 282 284 279 283 283 281 280 283 278 282 289 287 287 286 288 289 289 291 292 291 290 291 291 292 293 294 295 296 296 296 296 296 294 294 295 296 295 296 297 298 298 298 298 298 298 299 298 298 297 297 296 294 293 293 294 294 294 293 292 291 290 289 288 288 287 287 287 287 286 285 285 284 284 283 283 282 282 281 281 281 281 281 281 280 280
283 285 281 281 282 281 281 281 273 281 288 292 289 285 286 285 287 286 287 290 291 291 291 289 292 294 295 295 296 296 294 293 293 294 294 296 297 296 297 298 299 299 298 299 298 298 298 297 296 295 294 294 293 293 293 293 294 292 292 291 290 289 288 288 287 287 287 287 286 285 285 284 284 283 283 282 282 281 281 281 281 280 281 281 281 281
287 284 285 283 279 282 281 280 284 286 287 290 285 285 285 288 286 288 288 293 294 293 291 291 292 293 294 295 295 293 292 290 291 296 300 297 298 296 297 298 299 299 298 298 298 296 296 295 294 294 293 292 292 291 292 293 292 291 291 289 289 288 288 287 287 287 287 286 286 285 285 284 284 283 282 282 281 281 280 280 280 281 281 281 280 280
285 286 286 286 282 281 281 281 281 282 278 288 293 290 289 287 291 291 289 291 298 292 293 293 292 294 295 295 293 291 290 292 294 298 300 297 295 295 295 295 295 295 295 296 296 295 295 295 294 293 292 291 291 291 292 291 291 290 290 289 288 288 287 287 287 287 286 286 285 285 284 284 283 283 282 281 281 280 280 281 281 281 281 280 280 280
282 284 285 287 283 279 278 278 277 276 284 291 292 291 288 286 289 287 289 289 299 293 292 293 294 295 295 295 294 291 293 290 292 297 301 299 297 294 294 296 296 297 296 296 295 294 293 294 293 291 290 290 290 292 291 290 290 289 289 289 288 287 287 286 287 287 286 286 285 285 284 284 283 283 282 281 281 281 280 280 280 281 281 281 281 280
283 283 284 282 277 279 280 277 280 280 285 290 290 289 288 286 286 290 285 287 299 292 292 292 295 296 296 293 291 291 291 290 292 296 299 298 295 294 294 295 295 295 295 295 295 295 294 292 291 290 291 291 292 292 290 289 289 289 289 289 288 287 287 287 287 287 287 286 285 284 284 283 282 282 281 281 281 280 280 281 281 280 280 280 280 279
281 280 282 282 283 279 280 282 281 284 289 290 290 289 285 285 289 285 281 293 297 294 291 293 295 297 296 293 292 293 296 297 297 298 297 295 294 295 296 295 295 294 293 294 294 291 292 292 291 290 290 290 290 289 289 288 288 288 288 288 287 287 287 287 287 286 286 285 284 283 283 282 282 281 281 281 281 281 281 281 280 280 280 279 279 279
277 277 276 276 279 281 281 280 283 285 291 292 288 289 288 290 285 285 297 296 295 294 291 293 294 295 292 295 296 295 297 298 296 295 294 295 295 294 294 294 294 294 294 293 291 291 291 291 291 291 291 291 290 289 288 288 287 288 288 288 287 288 288 287 287 286 285 284 283 283 282 281 281 281 280 281 280 280 280 280 281 280 279 279 279 278
283 281 280 279 279 276 276 278 278 278 289 291 289 288 288 288 293 299 295 290 294 296 292 290 291 295 292 293 295 296 295 294 294 294 294 294 293 293 293 293 293 293 292 292 292 292 290 290 290 290 290 290 289 288 287 287 286 287 287 287 288 287 286 286 285 284 284 283 282 281 281 281 280 280 280 280 280 280 280 279 279 279 279 278 277 277
287 285 279 279 283 282 278 277 280 289 292 291 294 290 290 294 297 293 295 298 292 292 294 295 293 293 293 293 294 294 294 293 293 294 294 294 294 294 294 293 292 292 292 292 291 291 290 289 289 289 290 289 288 287 287 286 286 286 286 287 287 285 284 284 284 283 282 281 281 280 280 280 280 280 279 280 280 280 279 278 278 278 278 277 277 277
288 289 287 285 285 285 283 286 292 289 291 293 296 297 295 296 293 294 293 294 294 294 292 293 296 296 293 293 293 293 292 293 293 294 293 293 293 293 292 292 292 291 290 290 290 290 289 289 288 288 288 288 287 286 286 286 285 285 285 286 284 284 283 282 282 281 281 281 280 280 279 279 279 279 279 279 279 279 278 277 277 277 277 277 277 276
286 288 285 288 288 288 290 291 294 290 288 290 293 294 292 292 291 290 292 293 295 295 293 294 296 295 294 293 291 291 292 293 293 293 293 293 292 292 292 291 291 291 290 290 290 290 289 288 288 287 287 288 287 285 284 285 285 283 285 284 283 283 283 281 281 280 280 279 279 278 278 278 277 278 278 278 279 278 278 277 276 277 276 276 276 276
287 285 287 288 289 287 286 293 291 291 293 292 293 295 296 294 294 293 293 293 294 296 296 295 294 294 294 292 291 291 292 292 292 292 292 292 292 292 291 290 290 290 289 289 289 287 288 287 287 287 287 286 287 285 284 283 284 284 284 283 282 282 282 281 280 278 278 278 277 277 277 277 277 276 275 276 277 277 277 277 276 276 276 276 275 275
286 288 287 288 286 287 290 293 291 290 290 292 293 293 294 295 295 294 294 295 296 296 294 293 293 292 291 290 292 291 292 292 291 291 291 291 291 291 290 290 290 289 289 289 288 288 287 286 286 286 286 285 286 284 283 282 283 283 282 282 281 281 280 279 279 278 277 277 277 276 277 277 274 275 276 276 276 276 276 276 276 276 275 275 275 275
288 287 287 287 287 289 291 292 293 292 293 294 295 293 294 296 296 295 294 292 291 291 292 293 292 292 292 293 293 291 290 291 291 291 290 290 290 290 290 289 289 288 288 288 288 286 286 285 285 285 284 284 284 283 282 281 281 280 281 280 280 280 279 278 277 277 276 276 276 276 276 276 276 276 275 275 275 276 276 275 275 275 275 276 275 275
287 285 287 285 285 286 287 291 291 288 290 295 294 295 295 295 294 294 291 289 290 290 291 291 292 292 291 291 291 290 289 290 290 290 289 289 289 288 288 288 288 287 287 288 287 286 286 285 284 283 283 284 283 281 280 279 279 279 280 280 279 279 278 277 276 275 275 276 276 275 275 275 274 275 275 275 274 274 273 273 273 274 274 274 274 274
289 289 287 286 286 287 292 294 293 295 293 294 296 294 291 291 291 291 292 292 292 292 292 291 290 291 291 291 289 288 289 289 289 289 288 287 288 289 288 287 287 286 286 286 285 285 285 285 283 282 281 282 281 280 278 278 278 278 278 278 279 279 277 276 276 275 275 275 275 274 274 274 274 274 275 274 274 274 273 273 273 274 273 275 275 274
Wind_Speed
6 5 4 3 2 1 2 2 3 2 2 2 2 2 1 3 3 1 1 2 1 5 7 6 9 14 18 18 17 12 6 8 11 12 11 9 8 8 7 8 8 9 11 2 2 4 5 6 6 6 6 6 6 7 8 8 9 9 8 6 9 6 6 6 6 6 6 5 4 4 6 5 4 4 4 4 4 5 4 4 5 4 4 4 5 5
3 5 3 2 2 2 2 1 1 1 0 2 2 2 1 1 4 2 2 3 1 3 3 2 9 17 18 18 16 10 6 14 13 12 11 11 9 7 8 8 9 9 5 6 7 7 7 7 7 6 5 6 8 8 8 10 10 8 8 9 7 5 6 7 7 5 6 6 5 3 3 3 3 3 4 4 4 4 3 4 4 4 4 4 4 4
6 5 3 2 3 1 1 2 3 4 1 1 2 1 2 2 6 1 1 0 1 3 7 5 12 18 20 15 14 9 9 9 7 9 9 6 7 6 6 7 8 6 8 5 8 6 6 6 6 5 5 5 7 6 6 6 6 7 7 7 7 6 5 5 6 5 5 5 4 3 2 2 2 1 1 1 1 1 2 3 3 3 3 4 4 4
3 2 4 2 1 1 1 2 3 1 1 2 1 1 4 3 5 3 2 2 2 2 8 10 12 15 14 8 5 2 3 5 4 5 8 6 8 7 6 5 5 7 7 8 8 7 5 4 4 4 5 5 4 4 5 6 6 5 5 5 6 5 5 5 5 6 4 2 1 2 1 1 1 1 1 1 1 2 2 3 3 3 3 4 4 4
3 3 1 2 1 3 2 1 3 3 0 1 1 1 1 2 1 2 5 7 3 0 3 12 10 6 2 3 2 3 3 4 4 5 7 8 9 8 6 6 7 8 7 7 6 6 5 5 6 6 5 3 4 5 5 4 4 3 5 5 5 5 5 5 5 6 5 4 3 3 2 1 2 2 3 3 4 4 3 3 3 4 4 4 4 4
4 3 1 1 1 2 3 1 2 4 1 1 1 2 1 1 4 5 7 8 3 2 3 8 9 0 1 5 7 6 5 6 2 3 6 6 6 7 9 11 8 9 8 8 8 5 4 4 4 4 4 5 5 4 3 2 2 2 3 3 4 3 3 4 5 6 5 5 6 5 5 5 5 5 5 5 5 4 4 4 3 3 3 3 3 3
3 1 2 2 2 1 2 0 2 5 1 2 2 0 0 1 2 4 6 4 4 6 5 3 3 7 1 7 5 5 7 11 3 5 8 5 5 6 8 7 7 8 7 8 9 7 6 6 5 6 6 6 6 4 2 2 2 2 2 2 3 3 3 3 4 6 5 6 6 7 7 6 5 5 4 2 1 2 3 3 3 3 2 2 3 3
1 1 2 1 2 2 3 1 2 3 3 1 1 2 2 1 3 2 2 1 3 1 3 2 3 4 9 6 2 3 9 8 7 5 6 7 7 8 8 8 8 7 8 6 8 9 8 7 7 8 8 7 6 4 3 2 2 2 2 2 3 3 3 3 4 6 6 6 6 7 7 5 5 5 3 3 3 2 3 3 3 3 3 2 2 2
2 2 1 1 0 1 1 2 3 3 3 2 2 1 0 3 2 1 2 1 1 4 1 2 2 4 4 6 2 2 5 5 6 6 4 5 7 8 7 8 8 8 7 7 6 8 8 8 8 6 5 5 5 4 4 4 3 2 2 2 2 2 3 3 5 5 7 6 6 6 5 6 5 4 3 3 3 3 3 4 3 3 3 2 2 2
1 3 1 1 1 1 2 1 2 4 2 2 2 2 1 1 0 2 1 1 1 2 1 3 5 3 9 1 4 2 2 4 6 8 6 4 5 6 6 7 7 5 5 6 8 6 5 3 3 3 3 5 5 4 3 3 3 3 3 4 4 4 3 3 5 6 6 7 5 6 6 7 5 4 3 4 4 4 4 4 4 4 4 3 3 3
1 1 1 1 2 2 1 2 1 2 2 2 3 1 3 3 2 1 0 1 1 2 1 3 3 3 6 4 3 2 4 5 8 7 6 2 3 5 6 7 5 5 5 5 6 6 5 2 2 2 6 5 4 3 4 4 4 4 5 5 6 4 3 3 4 6 7 7 6 6 7 8 7 6 6 5 5 5 5 5 5 5 4 3 3 3
2 3 2 2 1 1 2 1 3 1 0 1 0 3 3 3 3 1 1 1 1 0 3 1 2 3 3 5 2 4 1 3 5 11 12 12 8 3 2 3 4 4 4 3 4 5 4 4 4 4 6 6 6 5 5 5 4 5 5 5 6 5 5 4 4 5 6 6 6 6 6 7 7 7 6 7 7 7 7 6 6 5 4 4 4 3
2 2 1 1 1 3 2 3 3 3 3 1 2 4 3 2 2 1 0 2 1 3 3 1 3 3 10 11 12 16 14 9 4 7 10 11 12 8 4 3 4 3 3 5 5 4 3 5 6 7 7 6 7 7 8 7 6 6 6 7 8 7 6 5 4 5 6 6 6 6 6 7 5 6 7 7 6 7 6 6 6 6 6 5 5 5
1 1 2 2 2 1 2 2 1 3 1 1 2 3 1 2 2 2 1 1 3 1 2 1 2 5 8 10 10 12 11 6 6 6 8 10 11 9 7 6 5 4 5 4 4 4 5 5 6 6 7 7 7 8 8 7 7 6 6 8 8 8 6 5 5 5 6 6 6 6 6 6 5 6 6 6 6 6 6 6 6 6 6 6 6 6
3 2 3 1 1 2 2 2 3 1 2 1 2 3 1 1 1 2 2 3 3 3 0 1 2 3 5 2 2 5 10 11 9 8 8 9 10 9 7 7 8 7 6 4 5 6 6 7 7 7 7 7 7 8 8 7 8 7 8 8 9 8 7 6 7 5 6 5 5 5 5 5 5 5 5 5 5 6 6 6 6 5 5 5 5 6
2 3 2 2 2 3 0 1 1 0 1 1 1 3 2 1 1 3 1 2 2 3 4 3 4 2 5 9 13 5 6 7 2 4 4 6 4 4 6 6 5 5 5 3 5 6 8 7 7 7 8 8 8 9 8 9 8 8 9 8 9 9 8 7 6 6 6 5 4 5 6 6 6 5 5 4 4 5 5 6 6 6 6 4 5 5
1 3 2 0 2 1 2 1 1 3 0 2 1 1 1 3 0 3 2 3 2 2 5 0 6 6 7 9 7 5 4 2 1 2 4 6 4 3 3 4 5 5 5 5 6 6 7 7 8 8 9 8 9 9 10 11 11 11 9 8 9 7 6 7 7 6 5 5 5 5 5 5 6 6 7 6 7 6 5 5 5 6 5 5 5 5
1 1 1 0 3 2 2 1 2 2 2 0 2 2 3 0 2 0 2 0 1 1 2 1 4 9 7 3 1 5 5 7 8 6 7 4 4 5 5 4 5 6 6 7 8 8 8 8 8 8 8 9 9 10 10 12 9 8 8 9 9 8 8 7 7 6 6 6 6 5 5 6 6 6 6 6 7 6 6 5 5 5 5 6 5 5
1 2 2 1 2 1 1 2 3 2 2 3 2 2 2 1 1 1 0 2 2 3 3 4 6 7 5 8 4 4 5 9 9 8 8 9 9 8 7 6 4 4 5 5 7 6 6 8 8 8 9 8 8 8 8 6 6 6 6 7 8 9 8 8 6 6 5 6 4 4 5 6 6 5 5 5 6 6 6 7 6 7 6 5 6 6
1 2 1 1 2 2 2 1 2 3 2 2 1 1 0 2 2 2 0 1 1 3 2 2 2 7 6 4 4 8 6 5 7 8 6 7 6 6 5 5 5 5 5 6 6 6 7 8 9 9 10 10 10 9 8 7 6 8 8 7 7 5 5 6 7 7 7 6 5 4 4 5 5 5 5 6 7 7 7 7 7 7 7 7 6 6
1 1 2 2 3 1 2 4 4 5 6 3 2 1 1 1 1 1 0 2 2 2 1 2 3 8 3 5 4 9 7 5 4 6 7 5 6 5 5 5 6 7 7 7 7 8 8 8 8 8 8 8 7 7 7 8 9 8 7 8 8 9 8 8 8 8 7 6 6 7 7 7 6 7 6 6 7 7 7 6 6 7 6 6 6 7
2 1 2 2 1 3 1 5 3 4 4 1 3 5 6 6 3 2 3 3 0 2 3 2 5 7 9 6 8 7 4 4 2 3 6 7 8 8 7 7 6 8 9 8 9 8 8 8 8 8 6 6 7 8 10 9 7 8 9 8 8 8 8 9 9 8 8 7 6 8 8 7 6 6 6 7 7 7 7 7 7 7 7 8 7 7
1 2 1 2 2 1 2 3 2 2 1 1 3 2 0 1 0 2 3 2 0 2 3 1 2 11 1 4 2 3 2 2 2 2 6 7 9 9 8 8 7 7 10 11 10 8 8 8 8 8 8 9 9 10 9 8 9 9 9 9 8 9 10 9 9 8 7 8 8 9 8 7 7 7 8 8 7 8 7 7 7 7 8 8 7 6
2 1 0 2 0 0 1 1 1 1 1 2 2 1 1 4 2 1 1 1 2 3 2 1 3 10 2 1 0 1 3 3 3 4 6 9 8 8 9 10 11 11 10 10 9 8 7 7 7 7 8 9 8 9 10 9 8 8 9 9 8 11 11 10 8 8 8 8 8 8 8 8 7 8 8 9 7 8 8 7 7 8 8 8 7 7
3 2 1 0 2 1 2 2 1 2 0 3 2 4 2 4 3 2 4 0 2 6 5 2 9 8 1 1 3 1 1 3 4 4 5 8 9 9 11 11 11 12 12 13 12 12 9 7 8 8 7 8 8 7 8 8 9 9 10 9 10 10 10 9 8 8 8 8 9 8 8 8 8 9 9 9 7 9 9 9 8 8 8 8 8 7
1 2 4 3 3 2 2 2 1 2 4 4 2 2 5 7 6 4 3 3 4 1 4 4 8 13 4 1 6 4 3 7 7 8 4 5 8 11 10 10 12 11 12 13 13 12 12 10 8 8 8 7 8 8 8 8 9 9 10 11 10 9 9 9 8 8 8 8 9 8 9 9 9 9 10 9 9 10 10 9 9 8 7 8 9 8
1 1 2 2 3 5 1 1 1 2 3 3 3 6 6 5 1 1 2 2 9 3 6 12 10 13 18 18 14 16 10 10 11 10 10 11 10 8 8 9 10 11 12 12 12 10 9 8 9 8 8 8 8 8 7 8 9 9 9 9 8 7 5 6 7 7 8 8 8 8 9 9 9 8 9 9 9 9 9 9 9 9 9 8 9 9
1 1 3 2 6 5 2 3 1 3 3 4 3 5 8 10 9 9 9 7 6 3 12 12 9 10 20 16 14 15 15 14 10 9 10 11 12 12 11 11 12 11 10 9 9 9 10 10 10 9 8 7 7 7 7 8 8 9 9 10 8 7 6 4 6 7 7 8 8 9 10 9 9 9 9 9 9 9 9 9 9 9 8 9 9 9
1 2 0 2 4 0 2 2 2 2 5 6 5 5 9 11 11 12 15 9 9 8 14 15 5 8 14 13 17 17 17 11 14 16 14 12 11 11 10 11 12 11 10 10 9 9 9 10 10 11 9 7 7 8 8 7 8 8 8 8 7 8 9 8 8 9 9 9 10 10 10 9 9 8 9 9 9 10 10 10 10 9 9 9 8 7
1 2 1 1 3 4 1 1 1 5 5 5 11 9 8 13 16 17 15 11 12 16 17 16 15 17 17 19 20 19 14 14 15 12 10 9 10 9 9 11 10 10 10 10 10 10 9 9 10 10 9 9 8 8 7 7 7 8 9 9 9 9 9 9 10 10 11 12 12 10 10 10 9 9 10 10 11 11 11 10 10 9 9 9 8 7
2 0 5 1 1 4 2 2 2 2 2 7 11 6 10 12 12 14 11 11 6 12 16 15 13 18 20 17 13 15 12 8 7 9 11 10 9 9 10 11 10 10 10 10 9 10 9 9 9 9 8 9 8 8 7 7 7 6 8 8 9 10 10 10 11 11 12 12 11 10 11 10 10 10 12 12 11 11 12 11 9 9 9 8 8 8
1 0 2 1 1 2 2 4 3 0 4 7 15 9 11 9 10 9 11 12 12 15 7 2 10 13 17 2 3 6 6 6 9 11 11 9 8 8 9 10 10 10 10 10 10 10 11 11 10 10 10 10 9 8 7 6 6 6 9 9 9 9 9 10 11 12 12 11 11 11 12 11 11 12 12 12 13 12 11 10 10 9 9 8 9 7
3 3 3 2 2 3 2 1 5 7 6 10 11 12 17 15 10 1 8 3 14 10 4 8 11 13 6 5 9 14 10 9 7 8 8 10 10 8 9 10 10 10 10 10 11 11 11 10 10 10 10 8 8 8 8 7 7 8 8 9 9 8 10 11 11 11 11 11 12 12 12 12 12 13 12 13 12 10 9 10 10 10 9 10 8 7
2 3 2 0 2 0 3 5 3 3 6 6 2 1 7 11 15 14 9 13 15 12 12 9 11 8 10 11 9 12 12 12 7 11 6 8 10 11 9 8 9 9 10 10 9 10 11 9 9 8 8 9 9 8 9 7 8 8 6 7 8 10 10 11 12 12 12 11 12 12 11 12 12 12 12 11 10 10 10 11 11 10 8 7 7 7
5 3 2 1 1 1 2 3 4 5 12 0 2 2 1 2 11 17 16 8 8 15 16 15 16 15 15 11 10 11 12 13 8 10 14 10 8 10 11 10 9 8 9 10 11 11 11 11 12 12 11 8 8 8 8 7 6 6 5 6 8 9 9 10 11 11 11 11 11 11 11 11 11 11 11 11 10 10 11 11 10 9 8 7 8 7
7 5 3 1 1 1 0 1 0 9 2 5 5 4 1 3 1 0 10 14 14 16 16 15 16 15 12 11 11 5 8 12 10 11 12 12 7 9 7 8 9 8 10 10 12 12 12 12 12 12 13 9 8 8 7 8 5 5 6 5 7 7 9 10 11 11 11 11 11 11 11 11 11 11 11 11 11 11 11 10 10 9 7 7 6 5
7 3 1 2 1 3 1 2 8 10 21 7 4 3 7 5 8 4 3 5 7 11 14 14 14 11 11 11 7 6 6 5 6 7 5 7 6 7 9 9 8 10 10 11 9 12 11 11 10 11 10 10 9 9 9 7 5 5 5 5 7 7 8 10 11 11 11 11 10 11 11 11 12 11 11 11 11 11 11 10 9 8 7 7 6 6
2 3 1 3 2 1 2 2 3 2 6 3 2 1 5 2 1 2 1 6 2 5 10 12 10 10 8 7 4 5 3 5 8 2 2 2 3 5 5 8 9 8 9 11 10 9 9 9 9 8 7 11 11 9 8 6 5 5 6 6 6 7 9 10 12 10 10 10 9 10 10 11 11 11 11 11 12 11 9 8 7 7 6 7 7 6
2 4 0 2 2 2 1 3 3 4 7 4 2 2 2 3 4 3 1 4 2 5 8 10 9 8 5 6 3 1 4 6 9 7 2 3 3 3 9 10 8 9 9 10 10 12 10 9 9 10 10 9 11 9 5 6 5 6 7 6 6 7 9 10 9 9 9 9 8 9 9 9 10 10 10 10 10 9 9 8 7 6 5 5 5 4
3 0 1 1 2 2 3 3 6 5 7 1 6 3 3 3 4 2 5 2 3 6 8 8 9 8 6 3 3 2 3 5 10 10 8 8 6 7 9 13 12 9 10 10 9 8 9 8 8 9 8 9 10 7 6 5 5 7 7 6 5 7 9 8 8 7 7 7 7 8 8 8 9 9 9 10 8 7 7 6 6 6 6 4 4 4
2 1 1 7 3 2 5 4 3 7 7 6 7 6 4 4 2 2 5 2 4 6 7 8 8 6 3 2 5 5 5 7 11 13 13 12 11 8 5 6 10 10 11 10 10 7 7 7 6 9 11 9 9 7 5 4 5 7 7 6 6 10 8 6 5 6 6 6 7 8 8 7 9 9 8 8 7 7 6 6 7 6 6 5 4 4
1 2 1 2 3 7 3 4 6 7 9 11 2 7 7 2 4 5 4 1 7 6 6 7 8 6 4 6 5 7 9 9 11 11 14 13 11 11 11 10 8 9 8 7 7 8 7 7 8 9 9 6 6 6 5 5 7 8 7 6 9 8 4 4 5 5 6 6 7 7 8 8 7 7 6 6 7 7 7 5 5 5 6 4 4 4
11 8 7 7 3 4 1 2 2 7 3 8 12 6 1 4 5 3 3 2 3 4 8 6 7 6 6 7 9 10 12 14 13 12 12 11 11 12 12 12 12 12 12 11 9 5 5 8 9 9 9 7 5 5 5 5 8 8 6 8 7 2 2 3 4 5 6 6 7 7 8 7 6 6 5 6 7 7 7 5 5 4 4 4 4 4
8 3 2 2 6 6 7 8 10 8 4 12 15 8 9 11 1 3 4 2 2 3 2 3 6 7 7 7 9 9 10 12 12 11 10 10 10 8 9 10 10 9 10 8 8 9 6 8 8 9 8 5 3 4 4 5 7 7 7 8 1 1 3 4 5 6 7 6 7 7 6 6 7 6 6 7 7 6 7 6 5 4 4 4 3 3
13 8 6 6 8 7 9 12 8 1 5 10 9 4 5 8 2 3 1 1 1 4 4 3 7 4 6 7 8 10 11 10 12 10 10 12 11 9 9 10 10 10 9 10 10 9 6 7 11 10 10 6 4 4 4 5 7 6 8 5 3 4 5 6 6 6 6 6 6 7 6 6 6 7 6 6 7 7 6 6 6 5 4 3 3 2
4 2 1 1 5 7 12 10 2 3 5 9 12 10 5 3 2 1 2 3 6 3 5 6 7 9 8 4 5 8 10 11 11 12 11 10 10 10 9 10 9 8 8 8 8 7 8 8 8 9 10 9 2 4 4 5 6 7 8 3 4 5 6 6 6 6 6 6 6 6 7 7 6 5 6 6 5 5 5 6 5 4 4 3 2 2
5 4 3 3 2 4 7 3 14 17 11 9 12 9 7 8 7 3 4 7 9 7 4 7 8 9 9 4 7 10 12 11 11 11 11 10 9 9 9 10 10 9 9 10 9 9 8 5 8 9 9 11 5 3 4 4 6 6 3 3 4 4 5 5 6 6 6 6 6 6 6 8 7 6 5 5 4 4 4 4 3 3 3 3 2 2
3 6 4 8 2 6 11 3 5 4 5 6 7 9 11 10 6 7 9 9 7 7 7 9 7 9 6 7 9 10 12 11 10 10 10 10 9 9 9 10 11 11 9 7 8 6 6 7 8 10 8 9 6 4 4 4 4 3 1 2 3 4 5 5 6 6 6 6 6 6 6 6 8 8 5 5 5 5 4 3 3 3 3 3 2 2
3 11 5 7 8 8 12 16 18 5 9 13 11 13 11 5 4 7 8 7 6 8 11 11 9 9 7 10 8 8 10 11 8 9 10 10 10 10 10 10 10 11 10 11 9 5 9 8 8 9 9 8 6 4 3 3 2 0 2 3 4 5 6 5 6 5 6 6 5 6 5 5 5 4 5 4 3 2 2 3 2 2 1 1 1 2
6 5 2 3 3 5 9 14 5 4 4 6 9 9 6 7 8 7 1 3 5 8 10 9 11 8 8 9 8 7 9 10 10 8 10 9 10 12 11 11 11 11 11 8 6 8 8 6 6 8 8 7 4 4 2 1 1 1 1 3 4 5 6 6 6 6 6 5 5 5 5 5 4 4 5 4 4 3 2 4 3 0 1 1 3 5
10 10 9 7 6 11 14 13 4 1 1 8 8 6 5 4 6 6 6 6 8 10 9 8 10 11 10 6 5 7 8 9 11 9 10 10 10 8 9 10 10 11 11 11 9 7 6 8 5 6 6 5 3 2 1 1 1 1 1 2 3 4 6 7 6 5 5 5 5 5 5 5 5 4 3 3 3 2 2 2 2 4 6 6 4 5
Wind_Direction
293 76 47 62 68 32 297 4 16 12 9 98 110 190 233 274 258 138 209 18 274 273 245 274 279 279 279 276 275 268 168 225 245 248 247 243 238 232 230 229 233 235 240 202 234 246 229 231 233 234 236 238 236 237 233 234 233 231 232 229 235 226 211 211 210 208 205 206 210 223 231 239 219 211 206 220 215 219 226 216 215 211 216 211 211 210
262 83 51 63 22 329 334 309 157 132 31 271 231 282 355 204 329 76 345 24 250 335 287 129 295 280 273 276 273 265 214 249 234 238 238 239 229 231 230 235 233 240 257 260 256 239 227 227 227 227 231 229 237 235 223 227 232 230 227 229 236 219 208 213 217 208 204 210 216 216 214 211 225 211 210 219 203 207 206 208 210 211 214 210 211 207
38 69 103 36 25 26 345 246 259 261 200 195 300 307 278 61 282 289 17 156 318 322 280 15 316 293 285 286 289 279 255 258 245 240 255 253 244 234 228 235 242 240 250 244 242 236 226 221 221 219 224 226 232 245 223 230 227 224 224 228 228 223 214 213 211 213 213 209 214 224 240 222 226 180 332 330 61 156 198 192 199 210 209 205 207 203
117 102 86 55 62 303 211 236 237 197 94 7 315 328 357 5 345 317 125 359 156 286 311 323 301 282 292 289 272 329 291 285 296 280 264 255 254 244 236 233 235 237 243 242 235 231 203 204 209 200 215 220 211 234 236 224 224 222 220 221 215 220 216 216 206 211 217 186 151 172 339 67 318 0 116 205 158 180 186 201 192 205 208 206 215 203
66 52 30 89 156 265 270 256 231 227 129 61 24 79 335 348 19 241 331 318 251 172 240 286 251 258 305 325 256 162 215 262 264 248 244 240 238 255 286 280 245 244 235 245 242 230 215 206 209 206 198 181 219 226 232 216 212 214 228 222 219 222 214 214 199 199 195 159 167 161 139 177 201 205 218 214 217 204 200 209 195 207 201 208 212 204
73 55 121 248 174 214 263 238 10 302 291 104 80 4 9 37 276 288 291 309 284 200 48 2 329 338 39 273 268 319 333 307 187 274 253 230 215 211 239 243 234 234 236 242 245 234 207 206 187 191 200 211 219 229 217 210 229 235 231 221 210 219 214 207 197 192 186 191 190 179 190 198 204 217 201 216 222 191 197 202 140 141 183 195 198 200
63 136 266 285 247 205 201 304 354 287 29 308 83 132 124 274 268 274 320 322 323 327 35 331 332 301 135 298 311 337 321 303 273 230 257 234 221 214 229 229 222 222 226 228 245 249 236 223 216 217 212 207 212 208 153 193 221 224 243 221 210 211 202 184 181 179 186 194 203 203 209 215 213 226 210 160 120 171 143 135 166 165 173 198 202 190
161 153 176 180 250 265 262 219 53 307 313 15 64 122 109 218 256 311 314 56 291 257 269 359 2 295 309 305 37 326 305 297 305 276 242 237 226 225 227 228 226 222 219 216 226 230 229 222 213 219 205 199 199 162 166 194 202 208 211 199 194 202 206 178 183 181 196 197 201 204 214 219 225 222 208 155 153 131 136 169 173 184 181 173 203 189
343 131 67 123 24 244 344 9 343 301 303 27 149 191 356 278 287 217 276 321 20 308 250 117 346 258 241 267 154 335 314 336 334 332 313 261 236 226 231 230 227 225 218 211 225 228 220 219 217 215 201 177 158 165 185 191 185 186 183 179 169 187 191 180 189 192 198 211 203 204 206 215 219 209 190 144 151 164 173 186 165 187 166 162 157 180
26 17 45 10 300 69 55 30 320 308 284 98 119 113 106 231 237 266 278 273 169 280 280 46 351 307 299 257 311 123 225 297 330 329 317 311 282 251 242 240 236 230 223 221 234 244 245 243 243 218 192 166 176 166 174 175 188 194 185 182 184 182 195 180 189 197 198 204 206 208 210 210 202 185 173 183 176 185 176 182 174 170 175 165 161 151
49 35 216 4 24 36 55 76 307 331 52 85 129 213 206 217 221 198 26 296 249 236 87 24 346 321 311 302 302 331 8 328 323 315 301 243 244 262 247 254 259 245 227 223 226 237 247 270 280 231 206 184 161 169 186 193 198 192 194 187 194 188 189 188 195 196 196 197 202 212 212 208 204 183 178 177 182 180 177 182 178 177 169 166 159 155
176 170 175 60 290 205 275 191 177 234 347 269 256 287 244 181 191 183 148 232 274 266 95 354 350 309 280 294 256 209 250 214 284 294 297 304 305 301 305 287 256 264 282 286 252 246 226 238 231 217 207 190 185 181 199 201 197 199 199 193 198 192 199 194 194 195 197 194 202 216 213 210 208 185 185 193 187 182 183 183 175 170 163 166 159 164
128 76 13 31 137 297 242 258 149 187 171 218 284 254 296 322 330 243 155 262 141 318 115 42 292 266 216 239 281 295 293 292 208 249 280 295 299 305 310 317 318 304 266 259 256 250 219 212 205 204 205 188 195 201 202 201 199 200 200 198 202 202 191 198 194 202 195 195 201 203 207 215 205 198 197 197 191 179 183 178 175 173 180 166 172 174
113 95 303 120 168 57 300 281 135 186 99 271 252 331 317 342 40 279 303 223 281 143 14 117 14 257 283 277 260 258 275 298 302 278 273 273 277 288 301 311 302 292 281 264 246 244 234 212 210 209 204 202 201 202 202 203 203 202 201 201 208 206 185 189 196 202 198 204 204 200 203 204 199 201 198 198 191 180 183 177 177 183 182 179 178 166
280 258 137 222 178 358 296 347 359 4 338 41 348 299 0 168 323 316 280 296 320 317 44 38 292 254 343 5 219 244 288 291 283 277 273 273 274 276 286 286 278 275 260 236 245 237 229 220 209 207 208 209 208 203 202 203 207 205 208 200 207 204 188 193 198 196 207 203 200 201 204 197 197 199 195 197 190 176 175 174 174 180 177 178 163 162
212 284 77 327 336 323 81 33 285 72 140 136 317 292 234 145 348 266 25 289 319 337 291 167 241 296 246 327 296 321 298 278 290 273 289 283 275 278 283 276 283 287 286 258 253 249 241 235 219 211 210 212 210 207 204 205 203 206 212 205 207 207 190 192 192 200 207 206 197 199 196 194 191 191 192 181 175 170 173 170 175 170 172 164 151 134
3 223 61 275 205 35 42 251 220 300 257 93 183 203 20 352 275 111 134 90 178 202 240 88 280 250 264 252 282 314 302 254 208 265 312 333 346 310 284 297 297 291 287 280 259 254 253 235 231 229 221 212 208 206 206 205 201 202 202 201 205 202 189 194 194 197 201 201 199 196 192 181 181 184 187 181 174 167 162 165 166 163 157 144 148 140
240 93 76 229 150 77 353 275 324 327 309 16 226 111 122 294 323 267 301 151 254 296 285 88 288 304 14 342 65 340 354 338 353 7 345 325 1 349 351 339 322 308 296 286 278 272 267 261 251 237 234 231 224 215 211 212 202 201 202 198 200 196 198 199 194 194 193 197 203 189 188 182 181 179 178 170 165 164 165 166 157 148 152 162 148 142
141 244 140 324 2 122 155 238 219 138 240 323 359 14 272 184 175 88 254 276 293 266 299 291 297 257 217 264 320 312 347 331 335 343 348 5 358 357 346 351 335 304 291 281 274 265 254 247 243 240 245 244 246 241 234 225 202 200 205 204 206 203 201 194 191 191 188 200 196 193 188 179 174 173 168 165 163 166 171 168 165 162 158 143 148 152
322 251 138 180 167 26 267 224 239 146 151 167 280 219 349 288 313 175 214 345 79 281 343 295 33 291 179 236 232 287 296 320 325 327 346 342 343 335 336 328 330 319 299 299 288 274 266 265 255 246 237 230 225 232 235 231 217 211 205 198 206 199 187 187 191 190 194 194 195 188 180 178 174 171 171 168 169 176 176 170 165 158 152 159 160 162
114 96 272 96 270 299 210 195 233 153 167 160 214 214 160 16 331 322 293 226 259 280 251 304 315 276 184 193 206 270 291 317 325 304 313 317 314 312 297 302 309 300 294 290 286 290 285 278 270 256 246 242 236 221 219 218 219 215 198 201 197 197 195 199 196 191 196 181 191 184 188 178 177 174 172 171 179 179 173 165 164 161 159 154 168 163
104 195 232 111 176 234 196 19 359 354 352 254 208 197 184 151 170 198 235 96 331 226 232 179 255 278 279 119 219 261 306 309 329 308 300 304 304 302 298 294 288 299 293 286 289 288 286 282 277 268 244 238 238 235 226 216 211 213 209 199 192 200 200 197 194 194 189 185 184 189 186 179 175 174 173 175 177 181 170 166 168 161 155 167 165 170
302 105 102 209 207 204 28 78 27 356 337 330 305 279 356 0 262 182 265 180 58 224 47 35 350 265 230 178 193 233 305 320 320 307 292 295 297 305 305 298 290 267 278 291 291 289 283 281 279 276 266 249 233 234 228 219 212 216 208 198 200 199 204 197 193 188 186 185 186 189 183 175 176 173 177 178 179 180 170 170 165 162 168 168 166 168
160 164 184 289 78 271 151 145 132 28 310 298 220 313 193 199 210 274 348 97 216 118 214 164 217 265 39 27 176 278 268 284 249 240 266 289 293 301 310 314 313 308 299 292 283 272 267 274 279 276 266 254 242 234 227 222 214 213 209 204 198 207 203 191 188 184 186 187 188 183 177 180 176 177 180 183 180 176 171 169 168 172 172 166 163 165
199 225 211 310 303 216 173 176 160 129 160 243 251 174 236 69 80 111 106 109 281 199 193 167 258 267 133 258 199 161 297 289 291 217 202 283 300 309 312 309 304 305 303 305 305 303 297 279 272 266 261 259 256 242 232 225 219 214 214 205 205 208 200 190 185 183 188 188 183 180 182 182 179 182 185 184 177 174 169 172 172 175 171 164 163 163
302 129 167 200 207 231 225 266 244 192 204 186 214 127 199 168 129 151 223 179 238 281 160 218 252 256 268 236 277 246 234 292 279 292 257 219 271 296 307 304 307 309 307 310 308 310 312 308 293 279 267 259 253 248 239 228 222 220 218 216 208 203 193 191 179 184 183 186 184 181 185 183 183 188 186 183 177 174 175 175 176 173 171 169 163 164
151 48 262 246 248 251 334 23 346 59 83 213 181 181 169 212 247 245 59 190 226 139 201 230 242 295 297 287 291 295 304 292 300 312 315 314 306 291 290 298 304 306 303 304 305 299 295 295 296 286 273 261 260 247 241 234 224 221 222 224 215 217 203 188 181 182 183 183 187 183 189 187 186 184 185 184 180 174 176 178 176 176 172 172 169 169
76 234 229 221 255 273 81 203 197 253 256 237 201 186 165 172 192 188 193 221 113 122 264 240 227 252 264 280 291 295 299 306 319 316 313 314 313 316 311 303 301 299 299 301 302 310 311 307 303 300 290 278 262 252 244 237 231 221 217 218 204 200 196 179 184 185 186 186 191 194 192 189 184 184 186 181 177 177 178 177 177 178 175 172 175 175
172 224 121 133 272 226 292 280 8 268 237 266 244 158 168 185 185 200 225 214 151 226 248 273 131 230 268 284 288 288 291 309 315 308 307 305 296 295 303 306 307 304 306 308 305 308 311 312 311 310 308 296 279 263 250 239 234 228 224 217 200 188 199 184 185 187 188 191 199 198 191 181 181 183 178 176 177 179 180 179 180 178 176 178 175 172
171 250 112 203 299 269 153 3 349 230 271 266 249 223 186 177 204 209 226 208 205 232 250 271 285 279 282 281 280 285 304 308 300 299 297 296 294 299 300 299 300 302 303 307 308 308 305 304 305 305 304 300 293 277 257 242 233 225 220 217 206 194 194 177 192 190 191 196 199 194 187 182 178 180 179 180 184 183 180 181 179 177 177 179 172 163
203 275 109 146 302 280 0 348 152 293 244 272 266 198 195 201 216 222 239 244 228 275 268 272 297 289 277 267 276 284 287 291 293 281 284 289 293 297 302 299 297 298 297 301 303 305 306 302 301 301 300 300 299 288 274 253 239 222 217 213 203 199 191 185 193 195 195 198 194 189 184 184 183 181 183 184 183 183 181 180 176 176 175 171 166 163
308 207 61 105 288 273 30 4 287 140 243 241 276 235 198 184 213 222 214 220 186 227 234 341 271 261 265 25 256 255 260 274 283 291 297 294 293 295 293 291 290 293 299 299 302 304 307 309 309 311 309 308 305 298 282 263 240 222 224 211 207 198 185 191 199 199 199 197 190 188 186 187 182 183 186 184 186 183 179 173 174 175 172 169 167 165
192 144 167 164 225 261 279 55 316 312 295 278 260 247 194 195 200 255 242 242 210 207 242 237 239 238 281 16 322 304 299 283 278 280 295 302 294 290 283 281 283 285 287 297 301 302 302 303 304 302 304 302 304 303 290 270 252 233 219 207 202 179 185 196 201 202 202 196 192 191 189 186 184 186 186 186 182 176 171 171 175 176 174 174 168 161
126 173 151 176 244 293 318 312 288 316 282 246 33 81 131 176 200 219 233 212 213 179 219 218 251 303 313 291 282 281 296 296 309 299 269 260 285 293 285 267 264 275 285 286 287 289 294 299 300 299 293 294 294 289 291 279 260 249 218 207 188 188 194 196 203 204 203 197 197 192 187 187 185 187 185 178 175 171 172 176 181 178 174 164 159 168
158 152 126 187 234 233 324 294 299 264 249 180 170 95 18 132 179 208 247 232 196 209 238 267 267 266 262 263 269 277 283 288 304 293 293 267 231 254 269 286 289 286 287 292 301 303 305 307 305 305 305 308 314 308 301 280 252 259 232 209 204 198 196 200 204 206 204 200 197 191 188 188 186 184 179 176 174 173 177 181 178 173 170 164 168 172
158 153 147 130 124 82 87 115 124 245 249 239 251 48 117 127 113 30 276 257 230 206 210 228 248 255 263 273 279 279 290 297 307 279 255 263 223 234 247 259 274 289 296 300 305 303 305 310 310 307 303 312 311 304 293 284 277 247 237 209 208 201 203 203 208 209 204 203 196 191 188 184 184 183 177 175 174 177 180 181 178 171 164 164 166 168
161 83 200 149 242 224 242 213 247 333 317 327 91 175 184 172 167 184 314 292 202 198 187 216 240 256 266 268 272 308 312 299 276 275 236 229 228 223 231 255 272 288 295 295 294 295 298 298 298 297 300 300 298 297 296 293 272 250 235 211 212 204 205 207 213 212 206 205 196 190 187 185 183 182 178 176 176 180 180 177 171 167 158 165 169 172
313 205 203 167 219 159 187 264 290 322 267 297 278 66 211 336 214 282 78 275 180 195 185 193 223 244 252 266 298 302 291 296 303 321 139 230 209 242 246 254 271 268 270 276 282 275 281 289 295 292 291 300 297 289 290 291 267 245 238 223 213 207 213 213 219 214 209 205 196 187 185 185 184 180 177 176 180 180 175 169 164 161 161 171 170 179
55 50 130 222 142 123 145 196 223 212 247 128 215 165 122 171 177 204 247 287 291 163 184 193 219 241 240 258 277 356 314 306 291 299 17 355 309 259 288 279 275 279 279 279 288 297 298 299 302 299 298 287 288 299 306 287 261 248 245 232 221 219 223 224 223 214 210 204 192 185 184 184 185 181 175 177 177 173 166 166 165 151 160 169 166 163
74 4 114 145 168 210 146 179 237 201 250 182 215 237 137 148 170 256 308 315 172 181 182 180 215 236 232 198 187 198 239 290 300 306 327 317 297 273 271 287 297 296 290 291 288 283 291 296 303 296 293 295 299 317 312 285 260 250 250 245 226 228 231 230 223 216 205 193 182 181 180 181 180 175 171 173 168 157 159 150 144 154 166 162 162 151
173 148 237 222 188 161 191 250 334 277 243 212 191 171 121 180 170 316 236 234 184 171 181 187 218 225 218 176 177 281 220 239 276 295 306 308 301 276 241 248 275 287 288 291 290 311 300 300 296 292 294 295 298 301 292 265 259 253 244 243 235 236 235 229 205 197 186 185 179 179 179 177 179 170 165 167 154 148 140 155 160 156 158 153 149 147
14 90 11 40 204 195 194 220 251 287 258 181 240 125 157 134 235 216 227 101 150 182 191 194 209 219 192 243 215 234 271 282 288 290 291 295 299 299 300 291 282 273 253 246 276 292 290 286 286 285 284 276 295 293 276 258 253 254 249 240 241 244 228 199 200 191 186 180 177 175 173 173 170 158 152 132 134 147 160 156 145 148 149 150 148 153
174 157 195 177 161 46 86 211 310 270 293 110 119 86 288 182 251 153 150 218 226 157 160 207 213 227 176 254 232 247 272 278 280 281 285 290 290 293 300 305 307 307 310 317 312 289 289 297 298 296 292 301 303 288 268 256 260 263 260 252 261 250 209 208 183 180 178 174 170 164 165 164 149 148 148 148 153 153 148 142 136 130 135 138 148 161
171 165 153 221 191 158 174 181 207 223 84 164 154 172 190 223 99 167 138 176 155 204 192 220 217 202 207 232 268 274 261 271 281 277 279 275 275 277 280 283 287 292 297 292 283 291 300 286 281 287 292 297 293 276 260 244 259 263 263 267 280 135 166 169 176 169 168 162 163 156 156 145 145 145 148 148 150 143 133 138 132 136 151 155 167 178
195 205 164 178 191 179 193 212 217 49 178 203 234 252 231 212 90 177 106 309 265 236 185 265 282 258 205 231 263 272 286 272 275 287 290 289 293 289 287 284 287 288 285 289 295 299 288 283 296 299 298 297 293 266 248 236 247 257 257 256 142 182 171 170 163 164 162 161 156 151 144 144 149 148 140 141 143 137 136 128 141 147 154 164 181 192
346 251 94 77 218 281 296 257 8 285 205 241 257 249 253 304 245 136 246 299 228 202 169 247 269 277 274 196 247 267 254 272 286 287 279 277 280 284 283 287 287 280 277 282 288 300 305 296 285 286 291 298 283 273 241 238 231 244 252 197 182 178 169 157 153 153 151 143 146 140 133 126 117 113 120 127 136 134 144 147 156 157 159 172 188 193
216 146 186 235 312 123 250 226 200 226 221 200 236 263 257 220 232 181 261 238 274 277 250 221 241 264 261 224 228 252 268 269 270 272 278 285 284 287 294 294 293 294 302 305 307 319 306 305 300 299 300 300 305 275 260 239 240 242 245 179 180 163 150 141 142 136 135 139 130 129 135 137 142 134 126 120 118 122 131 142 151 153 158 175 185 195
246 175 182 224 214 213 246 209 230 287 278 238 238 248 248 245 216 206 221 246 265 299 288 275 263 261 235 255 233 242 261 273 281 287 293 293 301 308 303 300 302 307 303 301 304 306 295 290 296 300 304 304 314 314 281 265 254 246 198 159 145 139 129 137 141 142 142 130 134 142 145 132 130 131 129 128 129 134 137 147 157 164 176 180 191 199
112 137 213 169 206 252 286 290 264 210 280 268 237 217 230 234 211 225 221 227 241 260 265 261 230 246 264 262 278 274 280 280 278 285 289 296 301 302 303 303 303 303 309 318 321 324 308 310 304 301 302 300 312 313 296 288 305 14 165 145 146 144 137 130 126 112 113 124 127 126 125 126 130 124 119 116 108 103 116 151 172 167 141 97 177 221
119 206 151 91 224 246 222 243 217 221 248 246 251 245 221 213 213 239 78 201 210 232 243 259 276 258 225 256 271 274 275 283 291 297 295 288 288 294 302 306 310 312 310 311 312 306 302 296 292 300 301 305 319 311 306 328 359 34 130 138 150 151 130 122 118 116 125 131 130 124 125 119 115 111 117 125 131 127 97 59 71 323 190 197 212 229
193 189 148 205 179 236 234 238 118 110 308 253 279 96 119 130 162 182 209 227 228 229 234 249 268 284 276 241 186 231 257 276 286 297 292 285 281 288 294 300 307 314 313 320 321 311 310 308 302 290 290 299 318 315 341 14 34 61 96 129 143 136 122 127 128 127 127 132 135 136 127 124 124 126 114 112 111 124 128 150 154 188 224 244 241 230